GW1885 Weather Reports


Display with metric or nautical units.
time (UTC)temp
F
wind
direction
speed
MPH
gust
MPH
rain 1hr
in
rain 24hr
in
rain mn
in
humidity
%
barometer
mb
20260506121503 41 5 2.0 9.0 0.02 0.79 0.75 99 1007.7
20260506121004 41 9 2.0 9.0 0.02 0.80 0.75 99 1007.6
20260506120503 41 327 1.0 8.0 0.02 0.80 0.75 99 1007.5
20260506120005 41 336 2.0 7.0 0.02 0.80 0.75 99 1007.6
20260506115525 41 8 2.0 9.0 0.02 0.80 0.75 99 1007.8
20260506115003 41 17 2.0 9.0 0.02 0.80 0.75 99 1007.8
20260506114504 41 15 1.0 6.0 0.03 0.81 0.75 99 1007.7
20260506114004 41 3 2.0 8.0 0.03 0.81 0.75 99 1007.8
20260506113504 41 358 2.0 10.0 0.04 0.82 0.75 99 1007.6
20260506113004 41 48 2.0 10.0 0.06 0.82 0.75 99 1007.8
20260506112504 42 57 2.0 7.0 0.06 0.82 0.74 99 1007.6
20260506112024 42 46 2.0 7.0 0.07 0.82 0.74 99 1007.4
20260506111503 42 35 1.0 6.0 0.07 0.81 0.73 99 1007.2
20260506111004 42 16 1.0 8.0 0.10 0.82 0.73 99 1007.5
20260506110503 42 31 2.0 9.0 0.13 0.82 0.73 99 1007.2
20260506110024 43 52 2.0 9.0 0.16 0.82 0.73 99 1007.3
20260506105525 43 30 1.0 6.0 0.18 0.82 0.73 99 1007.2
20260506105004 43 328 2.0 7.0 0.20 0.82 0.73 99 1007.2
20260506104504 43 324 2.0 11.0 0.21 0.81 0.72 99 1007.2
20260506104004 43 341 2.0 11.0 0.25 0.81 0.72 99 1006.9
20260506103503 43 340 1.0 7.0 0.26 0.80 0.70 99 1007.3
20260506103025 44 343 1.0 8.0 0.26 0.78 0.69 99 1007.3
20260506102504 44 359 1.0 8.0 0.29 0.77 0.68 99 1007.2
20260506102004 44 310 1.0 4.0 0.30 0.76 0.67 99 1007.4
20260506101524 44 306 1.0 4.0 0.32 0.75 0.66 99 1007.2
20260506101003 44 1 1.0 6.0 0.31 0.72 0.63 99 1007.2
20260506100503 44 14 1.0 6.0 0.30 0.69 0.60 99 1007.3
20260506100004 44 12 1.0 3.0 0.30 0.67 0.57 99 1007.6
20260506095504 44 20 1.0 4.0 0.29 0.64 0.55 99 1007.9
20260506095003 44 8 1.0 4.0 0.29 0.62 0.53 99 1008.0
20260506094504 43 344 1.0 3.0 0.28 0.60 0.51 99 1007.8
20260506094005 43 330 1.0 4.0 0.26 0.56 0.47 99 1008.1
20260506093503 43 327 1.0 4.0 0.25 0.54 0.45 99 1008.3
20260506093004 43 3 1.0 7.0 0.25 0.52 0.43 99 1008.2
20260506092504 44 37 1.0 7.0 0.22 0.48 0.39 98 1007.5
20260506092004 44 324 1.0 4.0 0.21 0.46 0.37 99 1007.7
20260506091503 44 311 1.0 3.0 0.19 0.43 0.34 99 1007.6
20260506091004 44 294 1.0 3.0 0.19 0.41 0.32 99 1007.6
20260506090503 45 274 1.0 4.0 0.17 0.39 0.30 98 1007.9
20260506090003 45 297 1.0 4.0 0.16 0.37 0.28 99 1008.0
20260506085524 45 317 1.0 3.0 0.16 0.35 0.26 98 1008.1
20260506085027 45 344 1.0 4.0 0.15 0.33 0.24 99 1007.7
20260506084525 45 331 1.0 4.0 0.15 0.32 0.23 98 1007.5
20260506084005 46 295 1.0 3.0 0.14 0.30 0.21 99 1007.5
20260506083527 46 300 1.0 3.0 0.14 0.29 0.20 98 1007.6
20260506083027 46 319 1.0 3.0 0.14 0.28 0.19 98 1007.6
20260506082504 46 298 1.0 3.0 0.13 0.26 0.17 98 1007.5
20260506082005 46 305 1.0 2.0 0.13 0.25 0.16 98 1007.3
20260506081506 46 16 1.0 2.0 0.13 0.24 0.15 98 1007.3
20260506081005 46 4 1.0 2.0 0.12 0.23 0.14 98 1007.3
20260506080506 46 5 0.0 4.0 0.11 0.22 0.13 98 1007.3
20260506073506 46 19 1.0 4.0 0.05 0.15 0.06 97 1007.6
20260506073026 46 350 1.0 4.0 0.04 0.14 0.05 97 1007.4
20260506072526 46 332 1.0 4.0 0.03 0.13 0.04 97 1007.3
20260506072027 46 22 1.0 2.0 0.02 0.12 0.03 97 1007.5
20260506071505 46 79 0.0 2.0 0.02 0.11 0.02 97 1007.5
20260506071006 46 28 0.0 2.0 0.02 0.11 0.02 97 1007.5
20260506070527 46 30 0.0 2.0 0.01 0.11 0.02 97 1007.6
20260506062506 45 235 1.0 4.0 0.01 0.10 0.01 95 1007.8
20260506062006 45 246 1.0 3.0 0.01 0.10 0.01 94 1007.8
20260506061505 45 262 1.0 3.0 0.01 0.10 0.01 94 1007.8
20260506061006 45 282 0.0 3.0 0.00 0.09 0.00 94 1007.7
20260506060525 45 28 0.0 2.0 0.00 0.09 0.00 93 1007.8
20260506051006 45 354 1.0 3.0 0.00 0.09 0.00 95 1008.3
20260506050505 45 328 1.0 3.0 0.00 0.09 0.00 96 1008.3
20260506045006 44 359 1.0 3.0 0.00 0.09 0.00 97 1008.4
20260506044506 44 358 1.0 4.0 0.00 0.09 0.00 98 1008.4
20260506044005 44 358 0.0 4.0 0.00 0.09 0.00 98 1008.4
20260506043505 44 357 0.0 2.0 0.00 0.09 0.00 98 1008.6
20260506043004 44 2 0.0 3.0 0.00 0.09 0.00 98 1008.6
20260506042504 44 8 0.0 3.0 0.00 0.09 0.00 98 1008.5
20260506042006 44 2 0.0 1.0 0.00 0.09 0.00 98 1008.6
20260506041505 44 11 0.0 2.0 0.00 0.09 0.00 98 1008.6
20260506041004 44 21 0.0 2.0 0.00 0.09 0.00 98 1008.9
20260506040527 44 32 0.0 2.0 0.00 0.09 0.00 98 1008.8
20260506040025 44 36 1.0 2.0 0.00 0.09 0.00 99 1008.8
20260506035504 44 27 1.0 2.0 0.00 0.09 0.00 99 1008.6
20260506035006 44 15 0.0 2.0 0.00 0.09 0.00 99 1008.8
20260506034526 43 12 0.0 1.0 0.00 0.09 0.00 99 1008.7
20260506034004 43 14 0.0 2.0 0.00 0.09 0.00 99 1008.8
20260506033505 43 15 0.0 1.0 0.00 0.09 0.00 99 1008.8
20260506033025 43 0 0.0 0.0 0.00 0.09 0.00 99 1008.8
20260506032504 43 0 0.0 0.0 0.00 0.09 0.00 99 1008.7
20260506032005 43 0 0.0 0.0 0.00 0.09 0.00 99 1008.7
20260506031526 43 0 0.0 0.0 0.00 0.09 0.00 99 1008.7
20260506031005 43 15 0.0 1.0 0.00 0.09 0.00 99 1008.8
20260506030504 43 15 0.0 1.0 0.00 0.09 0.00 99 1008.5
20260506030006 44 15 0.0 1.0 0.00 0.09 0.00 99 1008.8
20260506025506 44 15 0.0 1.0 0.00 0.09 0.00 99 1008.9
20260506025006 44 15 0.0 1.0 0.00 0.09 0.00 99 1009.1
20260506024525 44 15 0.0 1.0 0.00 0.09 0.00 99 1009.2
20260506024005 44 8 0.0 1.0 0.00 0.09 0.00 99 1009.2
20260506023504 44 357 0.0 1.0 0.00 0.09 0.00 99 1009.3
20260506023004 44 357 0.0 2.0 0.00 0.09 0.00 99 1009.1
20260506022505 44 358 0.0 2.0 0.00 0.09 0.00 99 1008.9
20260506022004 44 359 0.0 2.0 0.00 0.09 0.00 99 1009.1
20260506021504 44 353 0.0 2.0 0.00 0.09 0.00 99 1009.1
20260506021005 44 352 0.0 2.0 0.00 0.09 0.00 99 1009.3
20260506020505 44 346 0.0 1.0 0.00 0.09 0.00 99 1009.2
20260506020006 44 346 0.0 1.0 0.00 0.09 0.00 99 1009.5
20260506015504 44 346 0.0 1.0 0.00 0.09 0.00 99 1009.4
20260506015027 44 346 0.0 1.0 0.00 0.09 0.00 98 1009.4
20260506014504 44 346 0.0 1.0 0.00 0.09 0.00 98 1009.4
20260506014004 44 346 0.0 1.0 0.00 0.09 0.00 98 1009.3
20260506013505 44 347 0.0 1.0 0.00 0.09 0.00 98 1009.3
20260506013025 44 347 0.0 1.0 0.00 0.09 0.00 98 1009.2
20260506012504 44 346 0.0 1.0 0.00 0.09 0.00 98 1009.1
20260506012005 44 347 0.0 1.0 0.00 0.09 0.00 98 1009.3
20260506011505 44 347 0.0 1.0 0.00 0.09 0.00 98 1009.4
20260506011005 44 347 0.0 1.0 0.00 0.09 0.00 98 1009.6
20260506010506 45 347 0.0 2.0 0.00 0.09 0.00 98 1009.4
20260506010004 45 347 0.0 2.0 0.00 0.09 0.00 98 1009.4
20260506005505 45 347 0.0 2.0 0.00 0.09 0.00 98 1009.4
20260506005006 45 349 0.0 1.0 0.00 0.09 0.00 98 1009.6
20260506004505 45 0 0.0 0.0 0.00 0.09 0.00 98 1009.5
20260506004004 45 0 0.0 0.0 0.00 0.09 0.00 98 1009.4
20260506003505 45 0 0.0 0.0 0.00 0.09 0.00 98 1009.5
20260506003004 45 0 0.0 0.0 0.00 0.09 0.00 98 1009.5
20260506002505 45 0 0.0 0.0 0.00 0.09 0.00 98 1009.6
20260506002005 45 0 0.0 0.0 0.00 0.09 0.00 98 1009.6
20260506001505 45 0 0.0 0.0 0.00 0.09 0.00 98 1009.5
20260506001025 46 0 0.0 0.0 0.00 0.09 0.00 98 1009.6
20260506000505 46 0 0.0 0.0 0.00 0.09 0.00 98 1009.6
20260506000004 46 0 0.0 0.0 0.00 0.09 0.00 98 1009.7
20260505235525 46 0 0.0 0.0 0.00 0.09 0.00 98 1009.6
20260505235005 46 0 0.0 0.0 0.00 0.09 0.00 98 1009.6
20260505234504 46 0 0.0 0.0 0.00 0.09 0.00 98 1009.6
20260505234004 46 0 0.0 0.0 0.00 0.09 0.00 98 1009.7
20260505233504 46 0 0.0 0.0 0.00 0.09 0.00 98 1009.8
20260505233004 46 0 0.0 0.0 0.00 0.09 0.00 98 1009.7
20260505232505 46 0 0.0 0.0 0.00 0.09 0.00 98 1009.6
20260505232005 46 349 0.0 1.0 0.00 0.09 0.00 98 1009.8
20260505231504 46 349 0.0 1.0 0.00 0.09 0.00 98 1009.9
20260505231004 46 0 0.0 0.0 0.00 0.09 0.00 98 1009.9
20260505230505 46 0 0.0 0.0 0.00 0.09 0.00 98 1009.8
20260505230004 46 0 0.0 0.0 0.00 0.09 0.00 98 1009.8
20260505225504 46 0 0.0 0.0 0.00 0.09 0.00 98 1009.8
20260505225004 46 0 0.0 0.0 0.00 0.09 0.00 98 1009.9
20260505224526 46 0 0.0 0.0 0.00 0.09 0.00 98 1010.1
20260505224005 46 0 0.0 0.0 0.00 0.09 0.00 98 1010.0
20260505223505 46 0 0.0 0.0 0.00 0.09 0.00 98 1010.0
20260505223004 46 0 0.0 0.0 0.00 0.09 0.00 98 1010.2
20260505222504 46 0 0.0 0.0 0.00 0.09 0.00 98 1010.0
20260505222006 46 0 0.0 0.0 0.00 0.09 0.00 98 1010.1
20260505221504 46 0 0.0 0.0 0.00 0.09 0.00 98 1010.1
20260505221004 45 0 0.0 0.0 0.00 0.09 0.00 98 1010.2
20260505220505 45 0 0.0 0.0 0.00 0.09 0.00 98 1010.0
20260505220028 45 349 0.0 1.0 0.00 0.09 0.00 98 1010.0
20260505215504 46 349 0.0 1.0 0.00 0.09 0.09 98 1009.9
20260505215004 46 349 0.0 1.0 0.00 0.09 0.09 98 1009.8
20260505214504 46 0 0.0 0.0 0.00 0.09 0.09 98 1009.9
20260505214004 46 0 0.0 0.0 0.00 0.09 0.09 98 1010.0
20260505213526 46 0 0.0 0.0 0.00 0.09 0.09 98 1009.8
20260505213005 46 0 0.0 0.0 0.00 0.09 0.09 98 1009.9
20260505212505 46 0 0.0 0.0 0.00 0.09 0.09 97 1010.1
20260505212025 46 0 0.0 0.0 0.00 0.09 0.09 97 1010.1
20260505211504 46 0 0.0 0.0 0.00 0.09 0.09 97 1010.0
20260505211005 46 0 0.0 0.0 0.00 0.09 0.09 97 1009.9
20260505210505 46 0 0.0 0.0 0.00 0.09 0.09 97 1010.1
20260505210006 46 0 0.0 0.0 0.00 0.09 0.09 97 1010.0
20260505205505 46 0 0.0 0.0 0.00 0.09 0.09 97 1010.0
20260505205026 47 0 0.0 0.0 0.00 0.09 0.09 97 1009.9
20260505204504 47 0 0.0 0.0 0.00 0.09 0.09 97 1010.0
20260505204006 47 0 0.0 0.0 0.00 0.09 0.09 97 1009.9
20260505203504 48 0 0.0 0.0 0.00 0.09 0.09 97 1009.9
20260505203004 48 0 0.0 0.0 0.00 0.09 0.09 97 1009.9
20260505202504 48 0 0.0 0.0 0.00 0.09 0.09 97 1009.9
20260505202006 48 0 0.0 0.0 0.00 0.09 0.09 96 1009.9
20260505201505 48 349 0.0 1.0 0.00 0.09 0.09 96 1010.1
20260505201004 48 349 0.0 1.0 0.00 0.09 0.09 96 1010.1
20260505200504 49 0 0.0 0.0 0.00 0.09 0.09 96 1010.0
20260505200004 49 0 0.0 0.0 0.00 0.09 0.09 96 1009.7
20260505195505 49 350 0.0 1.0 0.00 0.09 0.09 96 1009.9
20260505195005 49 350 0.0 2.0 0.00 0.09 0.09 96 1009.8
20260505194505 49 350 0.0 2.0 0.00 0.09 0.09 96 1009.8
20260505194004 49 0 0.0 0.0 0.00 0.09 0.09 96 1009.9
20260505193525 50 351 0.0 1.0 0.00 0.09 0.09 96 1009.9
20260505193004 50 351 0.0 1.0 0.00 0.09 0.09 96 1009.9
20260505192505 50 352 0.0 1.0 0.00 0.09 0.09 96 1010.0
20260505192005 50 352 0.0 1.0 0.00 0.09 0.09 96 1009.8
20260505191504 50 351 0.0 1.0 0.00 0.09 0.09 96 1009.8
20260505191004 50 351 0.0 1.0 0.00 0.09 0.09 96 1009.8
20260505190505 50 0 0.0 0.0 0.00 0.09 0.09 96 1009.6
20260505190005 50 0 0.0 0.0 0.00 0.09 0.09 96 1009.7
20260505185525 50 0 0.0 0.0 0.00 0.09 0.09 96 1009.8
20260505185004 50 0 0.0 0.0 0.00 0.09 0.09 95 1009.8
20260505184526 50 0 0.0 0.0 0.00 0.09 0.09 95 1009.7
20260505184005 50 351 0.0 1.0 0.00 0.09 0.09 95 1009.7
20260505183505 50 351 0.0 1.0 0.00 0.09 0.09 95 1009.8
20260505183005 50 352 0.0 1.0 0.00 0.09 0.09 95 1009.9
20260505182505 50 354 0.0 1.0 0.00 0.09 0.09 95 1009.7
20260505182005 50 353 0.0 3.0 0.00 0.09 0.09 95 1009.6
20260505181504 50 353 0.0 3.0 0.00 0.09 0.09 95 1009.8
20260505181005 50 0 0.0 0.0 0.00 0.09 0.09 94 1009.5
20260505180504 50 356 0.0 1.0 0.00 0.09 0.09 94 1009.6
20260505180026 50 356 0.0 2.0 0.00 0.09 0.09 93 1009.6
20260505175505 50 356 0.0 2.0 0.00 0.09 0.09 93 1009.5
20260505175004 51 352 0.0 2.0 0.00 0.09 0.09 93 1009.6
20260505174504 51 353 0.0 2.0 0.00 0.09 0.09 93 1009.5
20260505174004 51 354 0.0 2.0 0.00 0.09 0.09 93 1009.6
20260505173504 51 354 0.0 1.0 0.00 0.09 0.09 92 1009.6
20260505173005 51 354 0.0 1.0 0.00 0.09 0.09 92 1009.6
20260505172504 51 355 0.0 1.0 0.00 0.09 0.09 93 1009.7
20260505172005 51 355 0.0 1.0 0.00 0.09 0.09 93 1009.7
20260505171506 51 355 0.0 1.0 0.00 0.09 0.09 92 1009.8
20260505171025 50 356 0.0 2.0 0.00 0.09 0.09 93 1009.8
20260505170505 50 357 0.0 2.0 0.00 0.09 0.09 93 1009.7
20260505170004 50 1 0.0 1.0 0.00 0.09 0.09 93 1009.8
20260505165504 50 1 0.0 1.0 0.00 0.09 0.09 92 1009.8
20260505165005 50 2 0.0 2.0 0.00 0.09 0.09 92 1009.7
20260505164505 50 4 0.0 3.0 0.00 0.09 0.09 92 1009.7
20260505164005 50 3 1.0 3.0 0.00 0.09 0.09 92 1009.7
20260505163505 51 360 1.0 2.0 0.00 0.09 0.09 93 1009.8
20260505163025 51 1 1.0 3.0 0.00 0.09 0.09 93 1009.8
20260505162504 51 2 1.0 3.0 0.00 0.09 0.09 92 1009.8
20260505162004 51 3 0.0 3.0 0.00 0.09 0.09 92 1009.8
20260505161505 51 4 0.0 1.0 0.00 0.09 0.09 93 1009.9
20260505161005 51 3 0.0 1.0 0.00 0.09 0.09 93 1009.7
20260505160526 51 3 0.0 2.0 0.00 0.09 0.09 92 1009.8
20260505153004 51 348 0.0 2.0 0.00 0.09 0.09 92 1009.9
20260505152505 51 348 0.0 1.0 0.01 0.09 0.09 93 1010.1
20260505152004 51 347 0.0 1.0 0.01 0.09 0.09 92 1010.1
20260505151504 51 352 0.0 2.0 0.01 0.09 0.09 94 1010.1
20260505151005 50 353 0.0 2.0 0.01 0.09 0.09 93 1010.1
20260505150525 50 356 0.0 2.0 0.01 0.09 0.09 93 1010.1
20260505140504 51 347 0.0 2.0 0.00 0.08 0.08 93 1010.5
20260505125004 50 275 0.0 1.0 0.04 0.07 0.07 93 1011.0
20260505124504 50 275 0.0 1.0 0.05 0.07 0.07 93 1011.0
20260505124005 50 0 0.0 0.0 0.05 0.07 0.07 94 1010.9
20260505123505 50 0 0.0 0.0 0.05 0.07 0.07 93 1011.0
20260505123004 50 275 0.0 2.0 0.05 0.06 0.06 93 1011.0
20260505122525 50 275 0.0 2.0 0.05 0.06 0.06 92 1011.1
20260505122005 50 275 0.0 1.0 0.05 0.06 0.06 92 1011.2